Showing default

HJS-4C, 58693

Orbit data source: Space-Track

HJS-4C, 58693 is a payload satellite owned by CASC (CN) in LEO that was launched on Sat, 30 Dec 2023 UTC via a CHANG ZHENG 2C/YZ-1S launch vehicle from the Jiuquan Satellite Launch Center, China (JSC). Payloads include a variety of satellites, spacecraft, and rockets equipped with specific instruments for various scientific and technological missions. These include communications satellites like Starlink; space stations such as the ISS; scientific satellites like the Hubble; Earth observation satellites from companies like Planet Labs, Umbra, and HawkEye 360; GPS; miniature CubeSats for education and research; and military/defense satellites.

Loading next visibility...
HJS-4C details
Identifier
58693, 2023-212C
Orbit
LEO
Last TLE update20 hours ago
Origin
Flag of CNCASC (CN / PRC)
ManufacturerCAST
MissionOperational Civil Communications
Bus & MotorUnknown
Mass~300 kg wet, ~300 kg dry
Launch date (UTC)
2023-12-30 (1 year ago)
Launch vehicle
CHANG ZHENG 2C/YZ-1S
Launch site
Jiuquan Satellite Launch Center, China (JSC)
Object type
Payload
Rocket body
Debris
Shape & HBRBox + 2 Pan, 2.5 m
Radar Cross Section2.320 m², Large (>1 m²)

Expand to show TLE details & history

TLE from 20 hours ago
0 HJS-4C
1 58693U 23212C   24355.89421477 -.00000071  00000-0  10226-3 0  9995
2 58693  49.9958 174.6530 0000469 181.5212 178.5664 13.41412991 48332
Epoch: 2024-12-20T21:27Z
Definitive object data (Epoch: 2024-12-20T21:27:40.156Z)
Latitude
Longitude122.78251°
Altitude1,104.88 km
Speed7.301 km/s
True Right ascension11h 38m 36s
True Declination0° 00' 00"
Sunlit
Object was in daylight at TLE epoch
Visualization TLE readout
Latitude-15.37078°
Longitude106.52579°
Altitude1,108.109 km
Speed7.299 km/s
Apparent Right ascension08h 08m 04s
Apparent Declination-36° 25' 09"
Sunlit
Object is in daylight
Visualization observer readout
Local Sidereal Time16:04:19
Azimuth253.786° W
Elevation-42.901°
Doppler factor1
Orbital elements
Apogee altitude1,105.082 km
Perigee altitude1,104.38 km
Semi-major axis7,482.868 km
Eccentricity0.0000469
Inclination49.9958°
RAAN174.653°
Arg. of periapsis181.5212°
True anomaly178.56653°
Mean anomaly178.5664°
Eccentric anomaly178.56647°
Mean motion3.35306 °/min
BSTAR0.00010226
Orbital period107.36 mins
Loading maneuver chart data...
Loading historical data...
Loading historical data...
Loading historical data...
Loading historical data...
Loading historical data...
Loading historical data...
Loading historical data...
Other satellites on launch #212 in the year 2023 (2023-12-30 UTC)

HJS-4C Visibility forecast

Observer location: undefined°, undefined

Span
Click to sort rows by Start time (UTC) header in descending order
Start Az.
Max El. time (UTC)
Max El. Az.
Max El.
End time (UTC)
End Az.
12 mins2024-12-21 17:25:46.154Z284.216° WNW2024-12-21 17:31:46.154Z354.079° N32.614°2024-12-21 17:37:46.154Z56.401° ENE
11 mins2024-12-21 19:20:46.154Z311.768° NW2024-12-21 19:25:46.154Z18.026° NNE33.412°2024-12-21 19:31:46.154Z80.978° E
13 mins2024-12-21 21:12:46.154Z304.471° NW2024-12-21 21:18:46.154Z10.015° NNE44.956°2024-12-21 21:25:46.154Z124.347° SE
9 mins2024-12-21 23:06:46.154Z275.332° WNW2024-12-21 23:10:46.154Z232.441° WSW23.944°2024-12-21 23:15:46.154Z182.104° SSW
8 mins2024-12-22 12:55:46.154Z163.699° S2024-12-22 12:59:46.154Z124.491° SE19.466°2024-12-22 13:03:46.154Z86.492° E
12 mins2024-12-22 14:45:46.154Z227.391° WSW2024-12-22 14:51:46.154Z106.7° ESE44.347°2024-12-22 14:57:46.154Z57.785° ENE
11 mins2024-12-22 16:39:46.154Z279.848° WNW2024-12-22 16:44:46.154Z348.448° N35.027°2024-12-22 16:50:46.154Z53.423° ENE
|